www.pogodaiklimat.ru
ПОГОДА в Эхтяри
Время
(UTC), дата
16 4.12
17 4.12
18 4.12
19 4.12
20 4.12
21 4.12
22 4.12
23 4.12
00 5.12
01 5.12
02 5.12
03 5.12
04 5.12
05 5.12
06 5.12
07 5.12
08 5.12
09 5.12
10 5.12
11 5.12
12 5.12
13 5.12
14 5.12
15 5.12
16 5.12
17 5.12
18 5.12
19 5.12
20 5.12
21 5.12
22 5.12
23 5.12
00 6.12
01 6.12
02 6.12
03 6.12
04 6.12
05 6.12
06 6.12
07 6.12
08 6.12
09 6.12
10 6.12
11 6.12
12 6.12
13 6.12
14 6.12
15 6.12
16 6.12
17 6.12
18 6.12
19 6.12
20 6.12
21 6.12
22 6.12
23 6.12
00 7.12
01 7.12
02 7.12
03 7.12
04 7.12
05 7.12
06 7.12
07 7.12
08 7.12
09 7.12
10 7.12
11 7.12
12 7.12
13 7.12
14 7.12
15 7.12
16 7.12
17 7.12
18 7.12
19 7.12
20 7.12
21 7.12
22 7.12
23 7.12
00 8.12
01 8.12
02 8.12
03 8.12
04 8.12
05 8.12
06 8.12
07 8.12
08 8.12
09 8.12
10 8.12
11 8.12
12 8.12
13 8.12
14 8.12
15 8.12
16 8.12
17 8.12
18 8.12
19 8.12
20 8.12
21 8.12
22 8.12
23 8.12
00 9.12
01 9.12
02 9.12
03 9.12
04 9.12
05 9.12
06 9.12
07 9.12
08 9.12
09 9.12
10 9.12
11 9.12
12 9.12
13 9.12
14 9.12
15 9.12
16 9.12
17 9.12
18 9.12
19 9.12
20 9.12
21 9.12
22 9.12
23 9.12
00 10.12
01 10.12
02 10.12
03 10.12
04 10.12
05 10.12
06 10.12
07 10.12
08 10.12
09 10.12
10 10.12
11 10.12
12 10.12
13 10.12
14 10.12
15 10.12
16 10.12
17 10.12
18 10.12
19 10.12
20 10.12
21 10.12
22 10.12
23 10.12
00 11.12
01 11.12
02 11.12
03 11.12
04 11.12
05 11.12
06 11.12
07 11.12
08 11.12
09 11.12
10 11.12
11 11.12
12 11.12
13 11.12
14 11.12
15 11.12
16 11.12
Ветер
(напр.,м/с)
Видим. Явления Облачность Т
(С)
Тd
(С)
f
(%)
Тe
(С)
Тes
(С)
Комфортность P
(гПа)
Po
(гПа)
Тmin
(С)
Tmax
(С)
R
(мм)
R24
(мм)
S
(см)
20 км ясно +3.0 +2.0 93 1000.2 980.3
20 км ясно +2.5 +1.7 94 1000.1 980.2
20 км ясно +2.0 +1.4 96 1000.7 980.7 +1.9 +4.2
20 км ясно +2.3 +1.5 94 1000.8 980.8
20 км 9/4
[]
+1.7 +1.2 96 1000.2 980.2
20 км 10/0
[]
+1.8 +1.1 95 999.3 979.3
20 км 10/0
[]
+1.6 +1.1 96 998.3 978.3
20 км 9/0
[]
+3.0 +1.7 91 996.6 976.8
20 км 10/0 100 м
[]
+2.0 +1.3 95 996.1 976.3
20 км 10/0 100 м
[]
+2.0 +1.2 94 995.2 975.3
20 км 10/0 200 м
[]
+2.5 +1.4 92 994.5 974.7
20 км 10/0 300 м
[]
+2.9 +1.5 90 993.7 973.9
20 км 9/0 300 м
[]
+3.3 +1.6 89 993.8 974.1
20 км 9/0 300 м
[]
+3.2 +1.5 89 993.3 973.5
20 км 10/0 300 м
[]
+3.2 +1.3 87 993.6 973.9 +1.4 +3.3 <0.5
20 км 9/0 300 м
[]
+3.1 +1.3 88 993.3 973.6
20 км 10/0 300 м
[]
+2.8 +1.2 89 993.3 973.5
20 км 10/0 300 м
[]
+2.8 +1.2 89 992.7 973.0
20 км 10/0 300 м
[]
+2.8 +1.2 89 992.3 972.5
20 км 10/0 300 м
[]
+3.1 +1.1 87 991.3 971.5
20 км 10/0 300 м
[]
+3.2 +1.1 86 989.9 970.2
20 км 10/0 600 м
[]
+3.2 +1.4 88 989.2 969.5
20 км в посл. час дождь 10/0 300 м
[]
+3.1 +1.4 89 988.3 968.7
20 км слаб. ливневой дождь 10/0 600 м
[]
+3.4 +1.2 85 987.4 967.7
20 км 10/0 600 м
[]
+3.5 +0.8 82 987.0 967.4
20 км 10/0 600 м
[]
+3.7 +0.6 80 986.8 967.2
20 км 10/0 600 м
[]
+3.7 +0.5 80 986.3 966.7 +2.8 +3.8
20 км слаб. морось 10/0 300 м
[]
+3.4 +1.1 85 985.5 965.9
20 км в посл. час осадки 10/0 300 м
[]
+3.5 +1.2 85 985.3 965.7
20 км 9/9 600 м
[]
+3.7 +0.8 81 985.5 966.0
20 км 10/0 600 м
[]
+3.6 +0.7 81 985.6 966.0
20 км слаб. ливневой дождь 10/10 300 м
[]
+3.5 +1.2 85 985.3 965.7
20 км 9/5 300 м
[]
+3.3 +1.0 85 985.3 965.7
20 км 9/4 300 м
[]
+2.9 +1.1 88 985.1 965.5
20 км 8/8 300 м
[]
+2.6 +1.2 90 985.3 965.6
20 км 9/5 300 м
[]
+2.1 +1.1 93 984.8 965.1
20 км 6/6 600 м
[]
+1.8 +0.9 94 984.3 964.6
20 км 9/9 200 м
[]
+1.5 +1.0 96 983.8 964.2
19 км 10/0 100 м
[]
+1.9 +1.6 98 983.5 963.9 +1.4 +3.9 0
20 км 10/9 200 м
[]
+2.6 +2.0 96 983.1 963.5
20 км слаб. ливневой дождь 9/9 100 м
[]
+2.6 +2.2 97 982.8 963.2
9000 м дождь 10/10 200 м
[]
+2.4 +2.1 98 982.6 963.0 0.8
2700 м дождь 10/0 100 м
[]
+2.0 +1.8 99 982.4 962.8 2
1700 м слаб. дождь 10/0 100 м
[]
+2.1 +2.0 99 982.3 962.7 0.9
3800 м слаб. дождь 10/0 100 м
[]
+2.6 +2.5 99 982.3 962.8 0.8
4800 м слаб. дождь 10/0 100 м
[]
+2.5 +2.4 99 982.8 963.2 1
2300 м слаб. дождь 10/0 100 м
[]
+2.2 +2.0 99 982.9 963.3 0.4
1600 м в посл. час дождь 10/0 50 м
[]
+1.9 +1.8 99 983.3 963.6 0.1
1200 м дымка 10/0 50 м
[]
+1.8 +1.8 100 983.7 964.1
1000 м в посл. час дождь 10/0 50 м
[]
+1.8 +1.7 99 984.4 964.7
700 м слаб. ливневой дождь ?/? +1.8 +1.8 100 984.5 964.8 +1.7 +2.7 0.1
1300 м в посл. час осадки 10/0 50 м
[]
+1.9 +1.9 100 984.9 965.2
3500 м в посл. час дождь 10/0 50 м
[]
+2.0 +2.0 100 985.2 965.6
1900 м дымка 10/0 50 м
[]
+2.3 +2.3 100 985.8 966.1
20 км слаб. ливневой дождь 10/0 50 м
[]
+2.3 +2.3 100 986.4 966.7
20 км ясно +1.2 +0.8 97 987.1 967.3
20 км 9/9 100 м
[]
+0.9 +0.7 99 987.6 967.8
20 км 9/0 100 м
[]
+0.6 +0.3 98 987.9 968.0
20 км 9/0 50 м
[]
-0.1 -0.3 99 988.1 968.2
2100 м дымка 10/0 50 м
[]
-0.5 -0.6 99 988.2 968.3
20 км 10/0 50 м
[]
-0.5 -0.6 99 988.2 968.3
20 км 10/0 50 м
[]
-0.5 -0.8 98 987.9 968.0
20 км 10/0 50 м
[]
-0.4 -0.6 99 987.5 967.6 -0.6 +2.4 0
20 км 10/0 50 м
[]
-0.2 -0.4 99 987.1 967.2
6000 м дымка 10/0 50 м
[]
+0.1 -0.1 99 986.5 966.7
800 м слаб. дождь 10/0 50 м
[]
+0.3 +0.2 99 985.8 966.0
1400 м слаб. снег 10/10 50 м
[]
+0.2 +0.1 99 984.8 965.0 0.7
1800 м слаб. снег 10/10 50 м
[]
+0.2 +0.1 99 983.7 963.9 0.9
1700 м слаб. дождь со снегом 10/10 50 м
[]
+0.1 +0.1 100 982.7 963.0 0.7
19 км слаб. ливневой дождь 10/0 100 м
[]
+0.2 +0.1 99 981.7 961.9
13 км слаб. снег 10/0 100 м
[]
+0.1 +0.1 100 981.0 961.3 0.1
1600 м слаб. снег 10/0 100 м
[]
+0.1 +0.1 100 980.5 960.7 0.6
1300 м слаб. снег 10/0 100 м
[]
+0.1 +0.1 100 980.2 960.5 1
5000 м слаб. снег 10/10 100 м
[]
0.0 0.0 100 980.3 960.5 0.8
1300 м снег 10/10 100 м
[]
-0.1 -0.1 100 980.4 960.7 -0.3 +0.3 0.6
2900 м слаб. снег 10/0 100 м
[]
0.0 -0.1 99 980.6 960.8 0.4
11 км слаб. дождь со снегом 10/0 100 м
[]
+0.1 +0.1 100 981.0 961.3 0.3
20 км слаб. ливневой дождь 10/0 100 м
[]
+0.1 +0.1 100 980.9 961.2
20 км слаб. ливневой дождь 9/0 50 м
[]
0.0 0.0 100 981.1 961.4
20 км в посл. час снег 10/0 100 м
[]
-0.1 -0.3 99 981.4 961.7
20 км 10/0 100 м
[]
-0.3 -0.7 97 981.6 961.9
20 км в посл. час снег 10/0 100 м
[]
-0.8 -1.3 96 982.0 962.2
20 км ливневой дождь 10/0 200 м
[]
-1.0 -1.5 96 982.3 962.5
20 км слаб. ливневой снег 10/0 100 м
[]
-1.3 -1.8 96 982.3 962.4
20 км слаб. ливневой снег 10/0 100 м
[]
-1.6 -2.2 96 982.8 962.9
20 км 10/0 100 м
[]
-1.8 -2.4 96 983.1 963.2
20 км 10/0 100 м
[]
-1.8 -2.3 96 983.2 963.3 -1.9 +0.1
20 км 10/0 100 м
[]
-1.9 -2.4 96 983.6 963.7
20 км 10/0 100 м
[]
-2.0 -2.6 96 984.2 964.3
20 км 9/0 300 м
[]
-1.8 -2.4 96 984.4 964.4
20 км слаб. снег 9/9 200 м
[]
-1.6 -2.2 96 983.7 963.8
3700 м слаб. ливневой снег 10/0 100 м
[]
-1.0 -1.4 97 983.9 964.0
17 км слаб. снег 10/0 200 м
[]
-0.7 -1.2 96 983.8 964.0
20 км слаб. ливневой снег 10/0 300 м
[]
-0.8 -1.4 96 983.4 963.6
20 км 10/0 300 м
[]
-1.0 -1.5 96 983.0 963.1
20 км 9/0 200 м
[]
-0.9 -1.4 96 982.2 962.4
20 км 9/0 200 м
[]
-0.8 -1.5 95 981.2 961.4
20 км 10/0 200 м
[]
-1.0 -1.5 96 980.0 960.2
20 км 10/0 100 м
[]
-1.1 -1.6 96 978.5 958.7 -2.5 -0.6
4100 м слаб. снег 10/10 100 м
[]
-1.1 -1.6 96 976.9 957.2
1600 м слаб. ливневой снег 10/0 100 м
[]
-0.9 -1.2 98 974.4 954.8 0.2
1000 м слаб. снег 10/0 100 м
[]
-0.5 -0.9 97 971.6 952.0 0.7
700 м снег 10/0 100 м
[]
-0.3 -0.6 98 969.9 950.4 1
9000 м слаб. снег 10/0 100 м
[]
0.0 -0.1 99 968.3 948.8 2
5000 м слаб. ливневой дождь 10/0 100 м
[]
+0.4 +0.3 99 967.3 947.9 0.1
20 км слаб. ливневой дождь 10/0 100 м
[]
+1.1 +0.8 98 967.1 947.8 0.2
14 км слаб. ливневой снег 10/0 200 м
[]
+1.1 +0.7 97 966.7 947.3 0.2
7000 м дождь со снегом 10/0 200 м
[]
+1.1 +0.6 96 965.8 946.5 0.6
20 км слаб. ливневой дождь 9/0 300 м
[]
+1.0 0.0 93 965.9 946.5 1
2300 м слаб. ливневой снег 10/0 300 м
[]
+0.5 -0.5 93 966.3 946.9
1200 м снег 10/0 200 м
[]
+0.1 -0.3 97 967.7 948.2 -1.2 +1.3 0.8 <0.5
2100 м слаб. снег 10/0 300 м
[]
+0.1 -0.3 97 969.5 950.0 0.3
6000 м слаб. снег 10/0 300 м
[]
-0.2 -0.8 96 971.3 951.8 0.2
20 км слаб. дождь со снегом 10/0 300 м
[]
-0.4 -1.1 95 973.0 953.4 0.1
20 км слаб. ливневой снег 10/0 300 м
[]
-0.8 -1.4 96 974.7 955.1
6000 м слаб. снег 10/0 200 м
[]
-1.5 -2.2 95 976.7 956.9 0.1
16 км слаб. снег 10/0 200 м
[]
-1.6 -2.2 96 978.6 958.8
11 км слаб. снег 10/0 200 м
[]
-1.8 -2.5 95 980.2 960.4
14 км слаб. снег 10/0 200 м
[]
-2.1 -2.9 94 981.8 961.9
19 км слаб. ливневой снег 10/0 300 м
[]
-2.4 -3.4 93 983.4 963.5
20 км слаб. ливневой снег 10/0 200 м
[]
-2.7 -3.5 94 985.0 964.9
20 км слаб. ливневой снег 10/0 200 м
[]
-2.8 -3.7 94 986.3 966.3
20 км в посл. час снег 10/0 300 м
[]
-3.0 -3.9 93 987.6 967.5 -3.0 +0.1
20 км слаб. ливневой снег 10/0 300 м
[]
-3.3 -4.5 91 989.0 968.8
8000 м слаб. ливневой снег 10/0 200 м
[]
-3.3 -4.2 93 990.2 970.0
10 км слаб. ливневой снег 10/0 200 м
[]
-3.5 -4.4 93 991.5 971.3 0.1
20 км 10/0 200 м
[]
-4.2 -5.3 92 993.0 972.7
20 км 10/0 300 м
[]
-4.4 -5.6 91 993.7 973.4
20 км 10/0 300 м
[]
-4.5 -5.7 91 995.1 974.8
20 км слаб. ливневой снег 10/0 300 м
[]
-4.5 -5.7 91 996.4 976.0
11 км слаб. ливневой снег 10/0 300 м
[]
-4.3 -5.3 93 997.5 977.1
20 км в посл. час снег 10/0 200 м
[]
-4.5 -5.5 93 998.6 978.2
20 км слаб. ливневой снег 10/10 200 м
[]
-4.5 -5.6 92 999.6 979.1
20 км 10/0 200 м
[]
-4.4 -5.4 93 1000.9 980.4
20 км слаб. ливневой снег 10/0 200 м
[]
-4.1 -4.9 94 1002.0 981.6 -4.6 -3.0 <0.5
18 км слаб. ливневой снег 10/0 200 м
[]
-3.8 -4.6 94 1003.3 982.9
20 км в посл. час снег 10/0 200 м
[]
-3.9 -4.7 94 1004.7 984.2
20 км 9/0 200 м
[]
-4.0 -4.9 93 1006.2 985.7
20 км 8/0 100 м
[]
-4.1 -5.0 93 1007.3 986.7
20 км 9/0 100 м
[]
-4.3 -5.1 94 1008.6 988.0
20 км 9/9 100 м
[]
-4.5 -5.3 94 1009.8 989.2
20 км 10/0 100 м
[]
-4.6 -5.4 94 1010.9 990.2
20 км 9/0 100 м
[]
-5.1 -5.7 96 1011.5 990.7
20 км слаб. ливневой снег 10/0 100 м
[]
-4.7 -5.3 96 1012.5 991.8
20 км 10/0 100 м
[]
-4.8 -5.5 95 1013.2 992.5
20 км 10/0 100 м
[]
-4.9 -5.6 95 1013.8 993.1
20 км 10/0 100 м
[]
-5.0 -5.8 94 1013.8 993.0 -5.1 -3.8
20 км 10/0 100 м
[]
-5.7 -6.3 96 1014.4 993.6
20 км 10/0 100 м
[]
-6.2 -6.7 96 1014.6 993.7
20 км 10/0 100 м
[]
-6.6 -7.1 96 1015.0 994.1
20 км 10/0 100 м
[]
-6.3 -6.8 96 1015.0 994.1
20 км слаб. снег 10/0 100 м
[]
-5.8 -6.4 96 1014.1 993.2
20 км 10/0 100 м
[]
-5.4 -6.0 96 1013.6 992.8
20 км 9/0 100 м
[]
-5.1 -5.8 95 1012.6 991.8
20 км 9/6 200 м
[]
-5.0 -6.0 93 1012.2 991.5
20 км 9/9
[]
-4.6 -5.9 91 1011.0 990.3
20 км 9/9 300 м
[]
-4.1 -5.7 89 1009.8 989.2
20 км 10/0 200 м
[]
-3.3 -4.6 91 1008.7 988.1
20 км 9/0 200 м
[]
-2.1 -3.6 89 1007.4 986.9 -6.6 -2.1 <0.5
20 км слаб. ливневой снег 9/9 300 м
[]
-1.5 -3.2 88 1006.1 985.8
20 км слаб. ливневой снег 9/0 300 м
[]
-1.0 -3.0 86 1004.8 984.5
20 км 9/9 300 м
[]
-0.6 -2.9 84 1003.8 983.5
6000 м слаб. снег 10/0 300 м
[]
-0.3 -2.6 84 1002.9 982.8
3200 м слаб. снег 10/10 300 м
[]
-0.5 -1.7 92 1002.0 981.8 0.2
5000 м слаб. снег 10/0 300 м
[]
-0.1 -1.4 91 1000.9 980.8 0.2
3700 м слаб. снег 10/0 200 м
[]
+0.2 -0.8 93 1000.7 980.6 0.2
4400 м слаб. снег 10/0 200 м
[]
+0.6 -0.1 95 1000.8 980.7 0.1
20 км слаб. морось 10/0 200 м
[]
+1.3 +0.3 93 1000.8 980.8 0.1
4400 м слаб. ливневой дождь 10/0 200 м
[]
+1.4 +0.8 96 1001.4 981.4
Местоположение метеостанции Эхтяри (Финляндия): широта 62.53 долгота 24.22 высота над уровнем моря 159 м.
В архиве по умолчанию представлена погода в Эхтяри за последнюю неделю. Архивные данные за месяц целиком и за предыдущие месяцы, начиная с января 2011 года, Вы можете получить, выбрав интересующий диапазон дат из раскрывающегося списка и нажав кнопку "Найти!".
*Определитесь, кто Вы:
Внимание! Время в таблицах - всемирное. Для получения местного времени необходимо прибавить поправку, которая равна 1 ч.
Смотрите также архив погоды в соседних городах и на ближайших метеорологических станциях:
Партнеры нашего сайта:      
Пояснения к столбцам:
  • Ветер - указаны скорость ветра в м/с - средняя за 10 мин, порывы в срок и между сроками (в фигурных скобках) и направление, откуда дует ветер: С - северный,
  • СВ - северо-восточный, В - восточный, ЮВ - юго-восточный, Ю - южный, ЮЗ - юго-западный, З - западный, СЗ - северо-западный.
  • Видимость - горизонтальная дальность видимости в метрах или километрах. При видимости от 1 до 10 км при отсутствии осадков обычно наблюдается дымка, при ухудшении видимости до 1 км и менее - туман. В сухую погоду видимость может ухудшаться дымом, пылью или мглою.
  • Явления - указаны атмосферные явления, наблюдавшиеся в срок или в последний час перед сроком; фигурными скобками обозначены явления, наблюдавшиеся между сроками (за 1-3 часа до срока); квадратными скобками обозначены град или гололедные отложения с указанием их диаметра в мм.
  • Облачность - указаны через наклонную черту общая и нижняя облачность в баллах и высота нижней границы облаков в метрах; квадратными скобками обозначены формы облаков: Ci - перистые, Cs - перисто-слоистые, Cc - перисто-кучевые, Ac - высококучевые, As - высокослоистые, Sc - слоисто-кучевые, Ns - слоисто-дождевые, Cu - кучевые, Cb - кучево-дождевые. Подробнее классификацию облаков см. в Атласе облаков (PDF).
  • T - Температура воздуха - температура, измеренная на высоте 2 м над землей.
  • Td - Температура точки росы - температура, при понижении до которой содержащийся в воздухе водяной пар достигнет насыщения.
  • f - Относительная влажность воздуха - влажноcть воздуха, измеренная на высоте 2 м над землей.
  • Te - Эффективная температура - температура, которую ощущает одетый по сезону человек в тени. Характеристика душности погоды. При расчете учитывается влияние влажности воздуха и скорости ветра на теплоощущения человека.
  • Tes - Эффективная температура на солнце - температура, которую ощущает человек, с поправкой на солнечный нагрев. Характеристика знойности погоды. Зависит от высоты солнца над горизонтом, облачности и скорости ветра. Ночью, в пасмурную погоду, а также при ветре 12 м/с и более поправка равна нулю.
  • P - Атмосферное давление - приведенное к уровню моря атмосферное давление.
  • Po - Атмосферное давление - измеренное на уровне метеостанции атмосферное давление.
  • Tmin - Минимальная температура - минимум температуры воздуха на высоте 2 м над землей.
  • Tmax - Максимальная температура - максимум температуры воздуха на высоте 2 м над землей.
  • R - Количество осадков - Количество выпавших осадков за период времени, мм. При наведении курсора мыши на число - период времени, за который выпало указанное количество осадков.
  • R24 - Количество осадков - Количество выпавших осадков за 24 часа, мм.
  • S - Снежный покров - Высота снежного покрова, см. При наведении курсора мыши на число - состояние снежного покрова и степень покрытия местности в баллах.